Flag for Germany Weather past 2 weeks in Konstanz, Baden-Württemberg, Germany

Now
75 °F

Passing clouds.


Feels Like: 78 °F
Forecast: 53 / 76 °F
Wind: 2 mph from Southwest

Location: Konstanz

Current Time: Jul 25, 2014 at 1:51:26 PM

Latest Report: Jul 25, 2014 at 1:00 PM


Visibility: 19 mi

Pressure: 29.88 "Hg

Humidity: 54%

Dew point: 57 °F

Location of KonstanzLocation

Historic Weather in Konstanz — Graph

°F

Konstanz temperature yesterday

Maximum temperature yesterday: 80 °F (at 4:00 PM)
Minimum temperature yesterday: 62 °F (at 7:00 AM)
Average temperature yesterday: 70 °F

Past Weeks' High & Low Weather Summary

 TemperatureHumidityPressure
High91 °F (Jul 19, 6:00 PM)99% (Jul 23, 4:00 AM)30.19 "Hg (Jul 23, 4:00 AM)
Low54 °F (Jul 10, 12:00 PM)14% (Jul 18, 5:00 PM)29.78 "Hg (Jul 20, 4:00 AM)
Average68 °F72%29.95 "Hg
* Reported Jul 10 12:00 Noon — Jul 25 12:00 Noon, Konstanz, Weather by CustomWeather, © 2014

Note: Actual official high and low records may vary slightly from our data, if they occured in-between our weather recording intervals... More about our weather records

Advertising

Konstanz weather history for previous 24 hours

 ConditionsComfort  
Time TempWeatherWind HumidityBarometerVisibility
12:00 PM
Jul 25
72 °FPassing clouds.2 mph65%29.90 "Hg19 mi
11:00 AM71 °FPassing clouds.2 mph66%29.91 "Hg12 mi
10:00 AM69 °FSunny.1 mph72%29.91 "Hg11 mi
9:00 AM65 °FSunny.1 mph75%29.93 "Hg11 mi
8:00 AM62 °FSunny.1 mph89%29.94 "Hg9 mi
7:00 AM59 °FSunny.1 mph92%29.94 "Hg7 mi
6:00 AM59 °FPassing clouds.1 mph93%29.93 "Hg9 mi
5:00 AM59 °FClear.1 mph92%29.93 "Hg8 mi
4:00 AM60 °FPassing clouds.1 mph91%29.92 "Hg10 mi
3:00 AM62 °FOvercast.No wind88%29.91 "Hg11 mi
2:00 AM62 °FClear.1 mph87%29.92 "Hg12 mi
1:00 AM64 °FClear.2 mph80%29.91 "Hg15 mi
12:00 AM65 °FClear.2 mph73%29.91 "Hg16 mi
11:00 PM
Jul 24
67 °FPassing clouds.1 mph73%29.90 "Hg19 mi
10:00 PM69 °FClear.2 mph67%29.88 "Hg22 mi
9:00 PM70 °FScattered clouds.2 mph66%29.86 "Hg25 mi
8:00 PM72 °FScattered clouds.3 mph61%29.85 "Hg19 mi
7:00 PM74 °FPartly sunny.3 mph56%29.84 "Hg19 mi
6:00 PM74 °FPartly sunny.3 mph56%29.84 "Hg19 mi
5:00 PM75 °FPartly sunny.5 mph49%29.84 "Hg19 mi
4:00 PM80 °FPartly sunny.3 mph40%29.82 "Hg19 mi
3:00 PM80 °FPartly sunny.3 mph40%29.82 "Hg19 mi
2:00 PM79 °FOvercast.3 mph43%29.83 "Hg25 mi
1:00 PM78 °FPartly sunny.1 mph44%29.84 "Hg19 mi
Weather by CustomWeather, © 2014

See weather overviewHow to use our weather pages